PUA2603 SUMU-SABE

Flight info

Callsign PUA2603
Flight time 0h 36m
Altitude 24000
Route DAGUS A306 UGIMI UGIMI8Q
Aircraft A20N/M-SDE2E3FGHIRWXY/LB1

Departure

Time 2026-04-26 03:33
Airport Carrasco General Cesáreo L. Berisso International Airport (SUMU)

Arrival

Time 2026-04-26 04:10
Airport Aeroparque Jorge Newbery (SABE)
Time Latitude Longitude Altitude Speed Heading
2026-04-26 03:10 -34.83653 -56.01857 74 ft 0 kts 143°
2026-04-26 03:25 -34.83643 -56.01866 75 ft 2 kts 143°
2026-04-26 03:25 -34.83631 -56.01877 75 ft 2 kts 143°
2026-04-26 03:26 -34.83619 -56.01888 75 ft 2 kts 143°
2026-04-26 03:26 -34.83607 -56.01899 75 ft 2 kts 143°
2026-04-26 03:26 -34.83597 -56.01908 76 ft 0 kts 143°
2026-04-26 03:26 -34.83591 -56.01916 76 ft 1 kts 99°
2026-04-26 03:27 -34.83591 -56.01926 76 ft 0 kts 56°
2026-04-26 03:27 -34.83596 -56.01933 76 ft 1 kts 53°
2026-04-26 03:27 -34.83597 -56.01933 76 ft 0 kts 53°
2026-04-26 03:28 -34.83596 -56.01932 76 ft 0 kts 53°
2026-04-26 03:29 -34.83590 -56.01923 76 ft 1 kts 53°
2026-04-26 03:29 -34.83581 -56.01907 76 ft 2 kts 53°
2026-04-26 03:29 -34.83567 -56.01885 77 ft 4 kts 53°
2026-04-26 03:29 -34.83547 -56.01852 79 ft 5 kts 53°
2026-04-26 03:30 -34.83520 -56.01809 80 ft 7 kts 52°
2026-04-26 03:30 -34.83483 -56.01771 81 ft 6 kts 13°
2026-04-26 03:30 -34.83440 -56.01781 82 ft 6 kts 338°
2026-04-26 03:30 -34.83395 -56.01821 83 ft 10 kts 322°
2026-04-26 03:31 -34.83309 -56.01852 84 ft 14 kts 23°
2026-04-26 03:31 -34.83234 -56.01754 86 ft 16 kts 53°
2026-04-26 03:31 -34.83163 -56.01635 89 ft 17 kts 51°
2026-04-26 03:31 -34.83088 -56.01514 94 ft 17 kts 54°
2026-04-26 03:32 -34.83013 -56.01390 98 ft 18 kts 54°
2026-04-26 03:32 -34.82940 -56.01268 102 ft 18 kts 54°
2026-04-26 03:32 -34.82829 -56.01286 101 ft 19 kts 323°
2026-04-26 03:32 -34.82858 -56.01444 96 ft 24 kts 242°
2026-04-26 03:33 -34.82980 -56.01673 90 ft 62 kts 233°
2026-04-26 03:33 -34.83403 -56.02371 78 ft 138 kts 234°
2026-04-26 03:33 -34.84066 -56.03494 256 ft 180 kts 235°
2026-04-26 03:33 -34.84798 -56.04695 1131 ft 176 kts 234°
2026-04-26 03:34 -34.85525 -56.05822 2064 ft 172 kts 227°
2026-04-26 03:34 -34.86592 -56.06550 2660 ft 190 kts 193°
2026-04-26 03:34 -34.87955 -56.06750 3263 ft 207 kts 192°
2026-04-26 03:34 -34.89437 -56.07143 3797 ft 228 kts 196°
2026-04-26 03:35 -34.91019 -56.07631 4365 ft 247 kts 198°
2026-04-26 03:35 -34.92737 -56.08222 4988 ft 264 kts 199°
2026-04-26 03:35 -34.94523 -56.08873 5792 ft 273 kts 199°
2026-04-26 03:35 -34.96335 -56.09550 6752 ft 276 kts 200°
2026-04-26 03:36 -34.98170 -56.10241 7692 ft 279 kts 200°
2026-04-26 03:36 -35.00008 -56.10935 8606 ft 282 kts 201°
2026-04-26 03:36 -35.01781 -56.11898 9478 ft 278 kts 221°
2026-04-26 03:36 -35.03015 -56.13633 10365 ft 272 kts 245°
2026-04-26 03:37 -35.03557 -56.15845 10945 ft 281 kts 268°
2026-04-26 03:37 -35.03437 -56.18270 11372 ft 297 kts 276°
2026-04-26 03:37 -35.03231 -56.20867 11771 ft 314 kts 275°
2026-04-26 03:37 -35.03032 -56.23552 12251 ft 327 kts 275°
2026-04-26 03:38 -35.02826 -56.26353 12721 ft 339 kts 275°
2026-04-26 03:38 -35.02620 -56.29211 13472 ft 342 kts 275°
2026-04-26 03:38 -35.02414 -56.32096 14265 ft 343 kts 275°
2026-04-26 03:38 -35.02208 -56.34977 14992 ft 346 kts 275°
2026-04-26 03:39 -35.01996 -56.37927 15687 ft 349 kts 275°
2026-04-26 03:39 -35.01786 -56.40842 16327 ft 353 kts 275°
2026-04-26 03:39 -35.01569 -56.43845 16975 ft 356 kts 275°
2026-04-26 03:39 -35.01351 -56.46855 17602 ft 359 kts 275°
2026-04-26 03:40 -35.01132 -56.49884 18204 ft 362 kts 275°
2026-04-26 03:40 -35.00909 -56.52926 18797 ft 365 kts 275°
2026-04-26 03:40 -35.00685 -56.55999 19386 ft 368 kts 275°
2026-04-26 03:40 -35.00456 -56.59113 19974 ft 370 kts 275°
2026-04-26 03:41 -35.00226 -56.62250 20555 ft 372 kts 275°
2026-04-26 03:41 -35.00002 -56.65303 21115 ft 375 kts 275°
2026-04-26 03:41 -34.99768 -56.68453 21669 ft 378 kts 275°
2026-04-26 03:41 -34.99532 -56.71624 22217 ft 380 kts 275°
2026-04-26 03:42 -34.99294 -56.74825 22778 ft 382 kts 275°
2026-04-26 03:42 -34.99053 -56.78035 23320 ft 384 kts 275°
2026-04-26 03:42 -34.98809 -56.81282 23772 ft 387 kts 275°
2026-04-26 03:42 -34.98565 -56.84530 23898 ft 386 kts 275°
2026-04-26 03:43 -34.98354 -56.87829 23898 ft 385 kts 273°
2026-04-26 03:43 -34.98273 -56.91088 23901 ft 385 kts 271°
2026-04-26 03:43 -34.98257 -56.94361 23901 ft 385 kts 271°
2026-04-26 03:43 -34.98244 -56.97614 23902 ft 385 kts 271°
2026-04-26 03:44 -34.98232 -57.00882 23902 ft 385 kts 271°
2026-04-26 03:44 -34.98219 -57.04164 23913 ft 385 kts 271°
2026-04-26 03:44 -34.98206 -57.07422 23910 ft 385 kts 271°
2026-04-26 03:44 -34.98191 -57.10674 23909 ft 385 kts 271°
2026-04-26 03:45 -34.98176 -57.13951 23921 ft 385 kts 271°
2026-04-26 03:45 -34.98161 -57.17215 23927 ft 385 kts 271°
2026-04-26 03:45 -34.98142 -57.20484 23931 ft 384 kts 271°
2026-04-26 03:45 -34.98125 -57.23708 23929 ft 384 kts 271°
2026-04-26 03:46 -34.98106 -57.27013 23924 ft 384 kts 271°
2026-04-26 03:46 -34.98087 -57.30242 23927 ft 384 kts 271°
2026-04-26 03:46 -34.98067 -57.33528 23920 ft 384 kts 271°
2026-04-26 03:47 -34.98024 -57.40051 23924 ft 384 kts 271°
2026-04-26 03:47 -34.98001 -57.43358 23926 ft 384 kts 271°
2026-04-26 03:47 -34.97977 -57.46638 23922 ft 383 kts 271°
2026-04-26 03:47 -34.97953 -57.49886 23931 ft 384 kts 271°
2026-04-26 03:48 -34.97928 -57.53171 23926 ft 384 kts 271°
2026-04-26 03:48 -34.97901 -57.56467 23922 ft 383 kts 271°
2026-04-26 03:48 -34.97872 -57.59716 23926 ft 383 kts 271°
2026-04-26 03:48 -34.97845 -57.62997 23927 ft 383 kts 271°
2026-04-26 03:49 -34.97816 -57.66288 23931 ft 384 kts 271°
2026-04-26 03:49 -34.97785 -57.69567 23933 ft 383 kts 271°
2026-04-26 03:49 -34.97754 -57.72822 23926 ft 383 kts 271°
2026-04-26 03:49 -34.97723 -57.76114 23929 ft 383 kts 271°
2026-04-26 03:50 -34.97690 -57.79350 23930 ft 383 kts 271°
2026-04-26 03:50 -34.97657 -57.82572 23930 ft 383 kts 271°
2026-04-26 03:50 -34.97596 -57.85824 23931 ft 383 kts 274°
2026-04-26 03:50 -34.97351 -57.89018 23930 ft 383 kts 277°
2026-04-26 03:51 -34.96902 -57.92216 23782 ft 383 kts 281°
2026-04-26 03:51 -34.96255 -57.95369 23287 ft 381 kts 284°
2026-04-26 03:51 -34.95538 -57.98451 22784 ft 378 kts 284°
2026-04-26 03:51 -34.94814 -58.01525 22300 ft 374 kts 285°
2026-04-26 03:52 -34.94101 -58.04539 21815 ft 371 kts 284°
2026-04-26 03:52 -34.93393 -58.07533 21346 ft 368 kts 284°
2026-04-26 03:52 -34.92684 -58.10525 20874 ft 365 kts 285°
2026-04-26 03:52 -34.91989 -58.13453 20414 ft 362 kts 284°
2026-04-26 03:53 -34.91287 -58.16409 19945 ft 359 kts 284°
2026-04-26 03:53 -34.90586 -58.19359 19475 ft 356 kts 284°
2026-04-26 03:53 -34.89895 -58.22259 19001 ft 354 kts 284°
2026-04-26 03:53 -34.89214 -58.25119 18519 ft 351 kts 284°
2026-04-26 03:54 -34.88546 -58.27925 18019 ft 348 kts 284°
2026-04-26 03:54 -34.87871 -58.30753 17526 ft 345 kts 284°
2026-04-26 03:54 -34.87211 -58.33521 17044 ft 342 kts 285°
2026-04-26 03:54 -34.86539 -58.36324 16559 ft 339 kts 285°
2026-04-26 03:55 -34.85884 -58.39059 16078 ft 337 kts 285°
2026-04-26 03:55 -34.85228 -58.41793 15588 ft 334 kts 285°
2026-04-26 03:55 -34.84571 -58.44527 15099 ft 332 kts 285°
2026-04-26 03:55 -34.83923 -58.47221 14610 ft 330 kts 285°
2026-04-26 03:56 -34.83273 -58.49915 14124 ft 328 kts 285°
2026-04-26 03:56 -34.82365 -58.52467 13619 ft 329 kts 298°
2026-04-26 03:56 -34.81008 -58.54708 13132 ft 330 kts 309°
2026-04-26 03:56 -34.79325 -58.56569 12639 ft 332 kts 316°
2026-04-26 03:57 -34.77523 -58.58347 12131 ft 331 kts 317°
2026-04-26 03:57 -34.75745 -58.60077 11628 ft 330 kts 317°
2026-04-26 03:57 -34.73953 -58.61823 11124 ft 328 kts 317°
2026-04-26 03:57 -34.72202 -58.63528 10888 ft 316 kts 317°
2026-04-26 03:58 -34.70501 -58.65184 10711 ft 303 kts 318°
2026-04-26 03:58 -34.68887 -58.66756 10528 ft 291 kts 317°
2026-04-26 03:58 -34.67322 -58.68283 10360 ft 280 kts 317°
2026-04-26 03:58 -34.65827 -58.69743 10205 ft 269 kts 317°
2026-04-26 03:59 -34.64373 -58.71164 10070 ft 259 kts 317°
2026-04-26 03:59 -34.62952 -58.72550 9944 ft 252 kts 317°
2026-04-26 03:59 -34.61593 -58.73879 9602 ft 253 kts 317°
2026-04-26 03:59 -34.60230 -58.75212 9263 ft 253 kts 318°
2026-04-26 04:00 -34.58844 -58.76564 8934 ft 252 kts 318°
2026-04-26 04:00 -34.57477 -58.77884 8607 ft 252 kts 321°
2026-04-26 04:00 -34.55900 -58.78782 8271 ft 257 kts 344°
2026-04-26 04:00 -34.54072 -58.78875 7951 ft 262 kts
2026-04-26 04:01 -34.52288 -58.78658 7649 ft 261 kts
2026-04-26 04:01 -34.50473 -58.78419 7335 ft 260 kts
2026-04-26 04:01 -34.48688 -58.78189 7025 ft 258 kts
2026-04-26 04:01 -34.46885 -58.77965 6712 ft 256 kts
2026-04-26 04:02 -34.45114 -58.77750 6400 ft 255 kts
2026-04-26 04:02 -34.43348 -58.77537 6090 ft 253 kts
2026-04-26 04:02 -34.41603 -58.77329 5782 ft 252 kts
2026-04-26 04:02 -34.39818 -58.77116 5464 ft 251 kts
2026-04-26 04:03 -34.38099 -58.76795 5137 ft 253 kts 17°
2026-04-26 04:03 -34.36695 -58.75520 4957 ft 252 kts 53°
2026-04-26 04:03 -34.36077 -58.73613 4883 ft 245 kts 83°
2026-04-26 04:03 -34.36310 -58.71605 4646 ft 242 kts 115°
2026-04-26 04:04 -34.37280 -58.69989 4446 ft 239 kts 135°
2026-04-26 04:04 -34.38475 -58.68581 4237 ft 239 kts 137°
2026-04-26 04:04 -34.39686 -58.67169 4028 ft 238 kts 136°
2026-04-26 04:04 -34.40867 -58.65754 3824 ft 238 kts 135°
2026-04-26 04:05 -34.42020 -58.64344 3623 ft 236 kts 135°
2026-04-26 04:05 -34.43226 -58.62968 3430 ft 235 kts 141°
2026-04-26 04:05 -34.44441 -58.61671 3263 ft 231 kts 134°
2026-04-26 04:05 -34.45486 -58.60207 3110 ft 224 kts 128°
2026-04-26 04:06 -34.46382 -58.58727 3041 ft 210 kts 125°
2026-04-26 04:06 -34.47182 -58.57305 2896 ft 200 kts 124°
2026-04-26 04:06 -34.47948 -58.55911 2625 ft 196 kts 124°
2026-04-26 04:06 -34.48697 -58.54551 2364 ft 192 kts 124°
2026-04-26 04:07 -34.49430 -58.53228 2105 ft 186 kts 125°
2026-04-26 04:07 -34.50124 -58.51979 1884 ft 170 kts 125°
2026-04-26 04:07 -34.50752 -58.50851 1643 ft 156 kts 125°
2026-04-26 04:07 -34.51337 -58.49802 1422 ft 144 kts 125°
2026-04-26 04:08 -34.51895 -58.48802 1245 ft 143 kts 125°
2026-04-26 04:08 -34.52451 -58.47804 1067 ft 142 kts 125°
2026-04-26 04:08 -34.53001 -58.46816 884 ft 141 kts 124°
2026-04-26 04:08 -34.53554 -58.45823 695 ft 140 kts 125°
2026-04-26 04:09 -34.54098 -58.44848 506 ft 140 kts 125°
2026-04-26 04:09 -34.54644 -58.43869 316 ft 139 kts 124°
2026-04-26 04:09 -34.55182 -58.42904 131 ft 138 kts 125°
2026-04-26 04:09 -34.55706 -58.41967 26 ft 126 kts 124°
2026-04-26 04:10 -34.56104 -58.41253 34 ft 76 kts 124°
2026-04-26 04:10 -34.56307 -58.40890 32 ft 36 kts 124°
2026-04-26 04:10 -34.56405 -58.40684 30 ft 16 kts 79°
2026-04-26 04:10 -34.56314 -58.40696 28 ft 16 kts 319°
2026-04-26 04:11 -34.56229 -58.40792 29 ft 16 kts 315°
2026-04-26 04:11 -34.56161 -58.40906 30 ft 16 kts 298°
2026-04-26 04:11 -34.56098 -58.41016 31 ft 15 kts 306°
2026-04-26 04:11 -34.56033 -58.41124 31 ft 15 kts 307°
2026-04-26 04:12 -34.55965 -58.41230 31 ft 16 kts 308°
2026-04-26 04:12 -34.55898 -58.41291 30 ft 11 kts
2026-04-26 04:12 -34.55822 -58.41304 28 ft 12 kts 304°
2026-04-26 04:12 -34.55774 -58.41396 28 ft 13 kts 303°
2026-04-26 04:13 -34.55733 -58.41479 28 ft 9 kts 302°
2026-04-26 04:13 -34.55684 -58.41485 28 ft 3 kts 10°
2026-04-26 04:13 -34.55678 -58.41484 28 ft 0 kts 12°